Time,TemperatureF,DewpointF,PressureIn,WindDirection,WindDirectionDegrees,WindSpeedMPH,WindSpeedGustMPH,Humidity,HourlyPrecipIn,Conditions,Clouds,dailyrainin,SoftwareType,DateUTC
2013-01-11 00:02:00,29.5,25.0,30.55,NW,310,0.0,0.0,83,0.00,,,0.00,meteohub,2013-01-11 05:02:00,
2013-01-11 00:07:00,29.5,25.0,30.54,NW,310,0.0,0.0,83,0.00,,,0.00,meteohub,2013-01-11 05:07:00,
2013-01-11 00:17:00,28.9,24.8,30.54,NW,310,0.0,0.0,84,0.00,,,0.00,meteohub,2013-01-11 05:17:00,
2013-01-11 00:22:00,28.9,24.8,30.54,NW,310,0.0,0.0,84,0.00,,,0.00,meteohub,2013-01-11 05:22:00,
2013-01-11 00:27:00,28.8,24.6,30.53,NW,310,0.0,0.0,84,0.00,,,0.00,meteohub,2013-01-11 05:27:00,
2013-01-11 00:32:00,28.6,24.6,30.53,NW,310,0.0,0.0,85,0.00,,,0.00,meteohub,2013-01-11 05:32:00,
2013-01-11 00:37:00,28.6,24.6,30.54,NW,310,0.0,0.0,85,0.00,,,0.00,meteohub,2013-01-11 05:37:00,
2013-01-11 00:42:00,28.6,25.0,30.54,NW,310,0.0,0.0,86,0.00,,,0.00,meteohub,2013-01-11 05:42:00,
2013-01-11 00:47:00,28.6,24.6,30.53,NW,310,0.0,0.0,85,0.00,,,0.00,meteohub,2013-01-11 05:47:00,
2013-01-11 00:52:00,28.2,24.6,30.54,NW,310,0.0,0.0,86,0.00,,,0.00,meteohub,2013-01-11 05:52:00,
2013-01-11 00:57:00,28.2,24.6,30.53,NW,310,0.0,0.0,86,0.00,,,0.00,meteohub,2013-01-11 05:57:00,
2013-01-11 01:02:00,28.6,24.6,30.53,NW,310,0.0,0.0,85,0.00,,,0.00,meteohub,2013-01-11 06:02:00,
2013-01-11 01:07:00,28.6,25.0,30.55,NW,310,0.0,0.0,86,0.00,,,0.00,meteohub,2013-01-11 06:07:00,
2013-01-11 01:12:00,28.6,24.6,30.54,NW,310,0.0,0.0,85,0.00,,,0.00,meteohub,2013-01-11 06:12:00,
2013-01-11 01:17:00,28.8,24.8,30.54,NW,310,0.0,0.0,85,0.00,,,0.00,meteohub,2013-01-11 06:17:00,
2013-01-11 01:22:00,28.8,24.8,30.54,NW,310,0.0,0.0,85,0.00,,,0.00,meteohub,2013-01-11 06:22:00,
2013-01-11 01:27:00,28.8,24.8,30.54,NW,310,0.0,0.0,85,0.00,,,0.00,meteohub,2013-01-11 06:27:00,
2013-01-11 01:32:00,28.9,24.8,30.54,NW,310,0.0,0.0,84,0.00,,,0.00,meteohub,2013-01-11 06:32:00,
2013-01-11 01:37:00,28.9,24.8,30.54,NW,310,0.0,0.0,84,0.00,,,0.00,meteohub,2013-01-11 06:37:00,
2013-01-11 01:42:00,28.9,24.8,30.54,NW,310,0.0,0.0,84,0.00,,,0.00,meteohub,2013-01-11 06:42:00,
2013-01-11 01:47:00,28.8,24.6,30.54,NW,310,0.0,0.0,84,0.00,,,0.00,meteohub,2013-01-11 06:47:00,
2013-01-11 01:52:00,28.4,24.4,30.54,NW,310,0.0,0.0,85,0.00,,,0.00,meteohub,2013-01-11 06:52:00,
2013-01-11 01:57:00,28.0,24.1,30.54,NW,310,0.0,0.0,85,0.00,,,0.00,meteohub,2013-01-11 06:57:00,
2013-01-11 02:02:00,28.0,24.4,30.53,NW,310,0.0,0.0,86,0.00,,,0.00,meteohub,2013-01-11 07:02:00,
2013-01-11 02:07:00,27.9,24.3,30.53,NW,310,0.0,0.0,86,0.00,,,0.00,meteohub,2013-01-11 07:07:00,
2013-01-11 02:12:00,27.5,24.1,30.53,NW,310,0.0,0.0,87,0.00,,,0.00,meteohub,2013-01-11 07:12:00,
2013-01-11 02:17:00,27.3,23.9,30.53,NW,310,0.0,0.0,87,0.00,,,0.00,meteohub,2013-01-11 07:17:00,
2013-01-11 02:22:00,27.3,23.9,30.53,NW,310,0.0,0.0,87,0.00,,,0.00,meteohub,2013-01-11 07:22:00,
2013-01-11 02:27:00,27.3,24.3,30.53,NW,310,0.0,0.0,88,0.00,,,0.00,meteohub,2013-01-11 07:27:00,
2013-01-11 02:32:00,27.3,24.3,30.52,NW,310,0.0,0.0,88,0.00,,,0.00,meteohub,2013-01-11 07:32:00,
2013-01-11 02:37:00,27.3,23.9,30.52,NW,310,0.0,0.0,87,0.00,,,0.00,meteohub,2013-01-11 07:37:00,
2013-01-11 02:42:00,27.1,23.7,30.52,NW,310,0.0,0.0,87,0.00,,,0.00,meteohub,2013-01-11 07:42:00,
2013-01-11 02:47:00,27.0,23.5,30.51,NW,310,0.0,0.0,87,0.00,,,0.00,meteohub,2013-01-11 07:47:00,
2013-01-11 02:52:00,27.0,23.9,30.52,NW,310,0.0,0.0,88,0.00,,,0.00,meteohub,2013-01-11 07:52:00,
2013-01-11 02:57:00,27.0,23.9,30.52,NW,310,0.0,0.0,88,0.00,,,0.00,meteohub,2013-01-11 07:57:00,
2013-01-11 03:02:00,27.0,24.1,30.52,NW,310,0.0,0.0,89,0.00,,,0.00,meteohub,2013-01-11 08:02:00,
2013-01-11 03:07:00,27.0,23.9,30.51,NW,310,0.0,0.0,88,0.00,,,0.00,meteohub,2013-01-11 08:07:00,
2013-01-11 03:12:00,27.1,24.1,30.52,NW,310,0.0,0.0,88,0.00,,,0.00,meteohub,2013-01-11 08:12:00,
2013-01-11 03:17:00,27.0,23.9,30.51,NW,310,0.0,0.0,88,0.00,,,0.00,meteohub,2013-01-11 08:17:00,
2013-01-11 03:22:00,27.1,24.1,30.51,NW,310,0.0,0.0,88,0.00,,,0.00,meteohub,2013-01-11 08:22:00,
2013-01-11 03:27:00,27.1,24.1,30.51,NW,310,0.0,0.0,88,0.00,,,0.00,meteohub,2013-01-11 08:27:00,
2013-01-11 03:32:00,27.0,23.9,30.51,North,-999,-999.0,0.0,88,0.00,,,0.00,meteohub,2013-01-11 08:32:00,
2013-01-11 03:37:00,27.0,23.9,30.51,NW,310,0.0,0.0,88,0.00,,,0.00,meteohub,2013-01-11 08:37:00,
2013-01-11 03:42:00,27.0,23.9,30.50,NW,310,0.0,0.0,88,0.00,,,0.00,meteohub,2013-01-11 08:42:00,
2013-01-11 03:47:00,26.8,23.7,30.50,NW,310,0.0,0.0,88,0.00,,,0.00,meteohub,2013-01-11 08:47:00,
2013-01-11 03:52:00,26.8,23.7,30.51,NW,310,0.0,0.0,88,0.00,,,0.00,meteohub,2013-01-11 08:52:00,
2013-01-11 03:57:00,26.8,23.9,30.51,NW,310,0.0,0.0,89,0.00,,,0.00,meteohub,2013-01-11 08:57:00,
2013-01-11 04:02:00,26.8,23.7,30.51,NW,310,0.0,0.0,88,0.00,,,0.00,meteohub,2013-01-11 09:02:00,
2013-01-11 04:07:00,26.8,23.7,30.50,NW,310,0.0,0.0,88,0.00,,,0.00,meteohub,2013-01-11 09:07:00,
2013-01-11 04:12:00,26.6,23.5,30.51,NW,310,0.0,0.0,88,0.00,,,0.00,meteohub,2013-01-11 09:12:00,
2013-01-11 04:17:00,26.6,23.5,30.50,NW,310,0.0,0.0,88,0.00,,,0.00,meteohub,2013-01-11 09:17:00,
2013-01-11 04:22:00,26.6,23.5,30.50,NW,310,0.0,0.0,88,0.00,,,0.00,meteohub,2013-01-11 09:22:00,
2013-01-11 04:27:00,26.6,23.5,30.49,NW,310,0.0,0.0,88,0.00,,,0.00,meteohub,2013-01-11 09:27:00,
2013-01-11 04:32:00,26.6,23.5,30.50,NW,310,0.0,0.0,88,0.00,,,0.00,meteohub,2013-01-11 09:32:00,
2013-01-11 04:37:00,26.4,23.4,30.49,NW,310,0.0,0.0,88,0.00,,,0.00,meteohub,2013-01-11 09:37:00,
2013-01-11 04:42:00,26.2,23.2,30.49,NW,310,0.0,0.0,88,0.00,,,0.00,meteohub,2013-01-11 09:42:00,
2013-01-11 04:47:00,26.2,23.2,30.48,NW,310,0.0,0.0,88,0.00,,,0.00,meteohub,2013-01-11 09:47:00,
2013-01-11 04:52:00,26.1,23.0,30.48,NW,310,0.0,0.0,88,0.00,,,0.00,meteohub,2013-01-11 09:52:00,
2013-01-11 04:57:00,25.9,23.0,30.48,NW,310,0.0,0.0,89,0.00,,,0.00,meteohub,2013-01-11 09:57:00,
2013-01-11 05:02:00,25.9,23.0,30.48,NW,310,0.0,0.0,89,0.00,,,0.00,meteohub,2013-01-11 10:02:00,
2013-01-11 05:07:00,25.9,23.0,30.47,NW,310,0.0,0.0,89,0.00,,,0.00,meteohub,2013-01-11 10:07:00,
2013-01-11 05:12:00,25.9,23.4,30.48,NW,310,0.0,0.0,90,0.00,,,0.00,meteohub,2013-01-11 10:12:00,
2013-01-11 05:17:00,25.9,23.4,30.48,NW,310,0.0,0.0,90,0.00,,,0.00,meteohub,2013-01-11 10:17:00,
2013-01-11 05:22:00,26.1,23.5,30.48,NW,310,0.0,0.0,90,0.00,,,0.00,meteohub,2013-01-11 10:22:00,
2013-01-11 05:27:00,26.1,23.5,30.49,NW,310,0.0,0.0,90,0.00,,,0.00,meteohub,2013-01-11 10:27:00,
2013-01-11 05:32:00,26.1,23.5,30.49,NW,310,0.0,0.0,90,0.00,,,0.00,meteohub,2013-01-11 10:32:00,
2013-01-11 05:37:00,26.1,23.5,30.49,NW,310,0.0,0.0,90,0.00,,,0.00,meteohub,2013-01-11 10:37:00,
2013-01-11 05:42:00,26.2,23.7,30.49,NW,310,0.0,0.0,90,0.00,,,0.00,meteohub,2013-01-11 10:42:00,
2013-01-11 05:47:00,26.2,23.7,30.48,NW,310,0.0,0.0,90,0.00,,,0.00,meteohub,2013-01-11 10:47:00,
2013-01-11 05:52:00,26.2,23.7,30.49,NW,310,0.0,0.0,90,0.00,,,0.00,meteohub,2013-01-11 10:52:00,
2013-01-11 05:57:00,26.4,23.9,30.49,NW,310,0.0,0.0,90,0.00,,,0.00,meteohub,2013-01-11 10:57:00,
2013-01-11 06:02:00,26.4,23.9,30.49,NW,310,0.0,0.0,90,0.00,,,0.00,meteohub,2013-01-11 11:02:00,
2013-01-11 06:07:00,26.4,23.5,30.49,NW,310,0.0,0.0,89,0.00,,,0.00,meteohub,2013-01-11 11:07:00,
2013-01-11 06:12:00,26.6,23.7,30.49,NW,310,0.0,0.0,89,0.00,,,0.00,meteohub,2013-01-11 11:12:00,
2013-01-11 06:17:00,26.6,23.7,30.49,NW,310,0.0,0.0,89,0.00,,,0.00,meteohub,2013-01-11 11:17:00,
2013-01-11 06:22:00,26.6,23.7,30.49,NW,310,0.0,0.0,89,0.00,,,0.00,meteohub,2013-01-11 11:22:00,
2013-01-11 06:27:00,26.6,23.7,30.49,NW,310,0.0,0.0,89,0.00,,,0.00,meteohub,2013-01-11 11:27:00,
2013-01-11 06:32:00,26.4,23.5,30.49,NW,310,0.0,0.0,89,0.00,,,0.00,meteohub,2013-01-11 11:32:00,
2013-01-11 06:37:00,26.4,23.5,30.49,NW,310,0.0,0.0,89,0.00,,,0.00,meteohub,2013-01-11 11:37:00,
2013-01-11 06:42:00,26.4,23.5,30.49,NW,310,0.0,0.0,89,0.00,,,0.00,meteohub,2013-01-11 11:42:00,
2013-01-11 06:47:00,26.6,23.7,30.50,NW,310,0.0,0.0,89,0.00,,,0.00,meteohub,2013-01-11 11:47:00,
2013-01-11 06:52:00,26.8,23.9,30.50,NW,310,0.0,0.0,89,0.00,,,0.00,meteohub,2013-01-11 11:52:00,
2013-01-11 06:57:00,26.8,23.7,30.50,NW,310,0.0,0.0,88,0.00,,,0.00,meteohub,2013-01-11 11:57:00,
2013-01-11 07:02:00,26.8,23.7,30.51,NW,310,0.0,0.0,88,0.00,,,0.00,meteohub,2013-01-11 12:02:00,
2013-01-11 07:07:00,26.8,23.4,30.50,NW,310,0.0,0.0,87,0.00,,,0.00,meteohub,2013-01-11 12:07:00,
2013-01-11 07:12:00,26.8,23.7,30.51,NW,310,0.0,0.0,88,0.00,,,0.00,meteohub,2013-01-11 12:12:00,
2013-01-11 07:17:00,26.8,23.7,30.51,NW,310,0.0,0.0,88,0.00,,,0.00,meteohub,2013-01-11 12:17:00,
2013-01-11 07:22:00,27.0,23.9,30.51,NW,310,0.0,0.0,88,0.00,,,0.00,meteohub,2013-01-11 12:22:00,
2013-01-11 07:27:00,27.0,23.9,30.51,NW,310,0.0,0.0,88,0.00,,,0.00,meteohub,2013-01-11 12:27:00,
2013-01-11 07:32:00,27.0,23.9,30.51,NW,310,0.0,0.0,88,0.00,,,0.00,meteohub,2013-01-11 12:32:00,
2013-01-11 07:37:00,27.0,23.9,30.51,NW,310,0.0,0.0,88,0.00,,,0.00,meteohub,2013-01-11 12:37:00,
2013-01-11 07:42:00,27.0,23.9,30.51,NW,310,0.0,0.0,88,0.00,,,0.00,meteohub,2013-01-11 12:42:00,
2013-01-11 07:47:00,27.1,24.1,30.50,NW,310,0.0,0.0,88,0.00,,,0.00,meteohub,2013-01-11 12:47:00,
2013-01-11 07:52:00,27.3,24.4,30.50,NW,310,0.0,0.0,89,0.00,,,0.00,meteohub,2013-01-11 12:52:00,
2013-01-11 07:57:00,27.5,24.6,30.50,NW,310,0.0,0.0,89,0.00,,,0.00,meteohub,2013-01-11 12:57:00,
2013-01-11 08:07:00,27.9,24.8,30.50,NW,310,0.0,0.0,88,0.00,,,0.00,meteohub,2013-01-11 13:07:00,
2013-01-11 08:12:00,28.2,25.2,30.51,NW,310,0.0,0.0,88,0.00,,,0.00,meteohub,2013-01-11 13:12:00,
2013-01-11 08:17:00,28.6,25.2,30.51,NW,310,0.0,0.0,87,0.00,,,0.00,meteohub,2013-01-11 13:17:00,
2013-01-11 08:22:00,28.9,25.5,30.51,NW,310,0.0,0.0,87,0.00,,,0.00,meteohub,2013-01-11 13:22:00,
2013-01-11 08:27:00,29.1,25.7,30.50,NW,310,0.0,0.0,87,0.00,,,0.00,meteohub,2013-01-11 13:27:00,
2013-01-11 08:32:00,29.5,26.1,30.50,NW,310,0.0,0.0,87,0.00,,,0.00,meteohub,2013-01-11 13:32:00,
2013-01-11 08:37:00,29.7,26.2,30.50,NW,310,0.0,0.0,87,0.00,,,0.00,meteohub,2013-01-11 13:37:00,
2013-01-11 08:42:00,29.8,26.8,30.50,NW,310,0.0,0.0,88,0.00,,,0.00,meteohub,2013-01-11 13:42:00,
2013-01-11 08:47:00,30.2,26.8,30.51,NW,310,0.0,0.0,87,0.00,,,0.00,meteohub,2013-01-11 13:47:00,
2013-01-11 08:52:00,30.6,27.0,30.51,NW,310,0.0,0.0,86,0.00,,,0.00,meteohub,2013-01-11 13:52:00,
2013-01-11 08:57:00,30.7,26.8,30.52,NW,310,0.0,0.0,85,0.00,,,0.00,meteohub,2013-01-11 13:57:00,
2013-01-11 09:02:00,31.1,26.8,30.51,NW,310,0.0,0.0,84,0.00,,,0.00,meteohub,2013-01-11 14:02:00,
2013-01-11 09:07:00,31.3,27.0,30.51,NW,310,0.0,0.0,84,0.00,,,0.00,meteohub,2013-01-11 14:07:00,
2013-01-11 09:12:00,31.5,27.0,30.51,NW,310,0.0,0.0,83,0.00,,,0.00,meteohub,2013-01-11 14:12:00,
2013-01-11 09:17:00,31.6,26.8,30.50,NW,310,0.0,0.0,82,0.00,,,0.00,meteohub,2013-01-11 14:17:00,
2013-01-11 09:22:00,31.8,27.0,30.50,NW,310,0.0,0.0,82,0.00,,,0.00,meteohub,2013-01-11 14:22:00,
2013-01-11 09:27:00,32.2,27.0,30.50,NW,310,0.0,0.0,81,0.00,,,0.00,meteohub,2013-01-11 14:27:00,
2013-01-11 09:32:00,32.4,27.1,30.49,NW,310,0.0,0.0,81,0.00,,,0.00,meteohub,2013-01-11 14:32:00,
2013-01-11 09:37:00,32.7,27.9,30.49,NW,310,0.0,0.0,82,0.00,,,0.00,meteohub,2013-01-11 14:37:00,
2013-01-11 09:42:00,32.9,27.7,30.48,NW,310,0.0,0.0,81,0.00,,,0.00,meteohub,2013-01-11 14:42:00,
2013-01-11 09:47:00,33.1,27.5,30.49,NW,310,0.0,0.0,80,0.00,,,0.00,meteohub,2013-01-11 14:47:00,
2013-01-11 09:52:00,33.3,27.5,30.49,NW,310,0.0,0.0,79,0.00,,,0.00,meteohub,2013-01-11 14:52:00,
2013-01-11 09:57:00,33.3,27.5,30.50,NW,310,0.0,0.0,79,0.00,,,0.00,meteohub,2013-01-11 14:57:00,
2013-01-11 10:02:00,33.6,27.5,30.49,NW,310,0.0,0.0,78,0.00,,,0.00,meteohub,2013-01-11 15:02:00,
2013-01-11 10:07:00,33.8,27.3,30.48,NW,310,0.0,0.0,77,0.00,,,0.00,meteohub,2013-01-11 15:07:00,
2013-01-11 10:12:00,34.2,27.7,30.48,NW,310,0.0,0.0,77,0.00,,,0.00,meteohub,2013-01-11 15:12:00,
2013-01-11 10:17:00,34.3,27.5,30.48,NW,310,0.0,0.0,76,0.00,,,0.00,meteohub,2013-01-11 15:17:00,
2013-01-11 10:22:00,34.5,27.5,30.49,NW,310,0.0,0.0,75,0.00,,,0.00,meteohub,2013-01-11 15:22:00,
2013-01-11 10:27:00,34.7,27.9,30.48,NW,310,0.0,0.0,76,0.00,,,0.00,meteohub,2013-01-11 15:27:00,
2013-01-11 10:32:00,34.9,27.7,30.49,NW,310,0.0,0.0,75,0.00,,,0.00,meteohub,2013-01-11 15:32:00,
2013-01-11 10:37:00,35.1,27.7,30.49,NW,310,0.0,0.0,74,0.00,,,0.00,meteohub,2013-01-11 15:37:00,
2013-01-11 10:42:00,35.2,27.9,30.48,NW,310,0.0,0.0,74,0.00,,,0.00,meteohub,2013-01-11 15:42:00,
2013-01-11 10:47:00,35.4,28.0,30.48,NW,310,0.0,0.0,74,0.00,,,0.00,meteohub,2013-01-11 15:47:00,
2013-01-11 10:52:00,35.8,28.4,30.48,NW,310,0.0,0.0,74,0.00,,,0.00,meteohub,2013-01-11 15:52:00,
2013-01-11 10:57:00,36.0,28.2,30.47,NW,310,0.0,0.0,73,0.00,,,0.00,meteohub,2013-01-11 15:57:00,
2013-01-11 11:02:00,36.1,28.6,30.47,NW,310,0.0,0.0,74,0.00,,,0.00,meteohub,2013-01-11 16:02:00,
2013-01-11 11:07:00,36.3,28.6,30.46,NW,310,0.0,0.0,73,0.00,,,0.00,meteohub,2013-01-11 16:07:00,
2013-01-11 11:12:00,36.3,28.6,30.45,NW,310,0.0,0.0,73,0.00,,,0.00,meteohub,2013-01-11 16:12:00,
2013-01-11 11:17:00,36.5,28.9,30.45,NW,310,0.0,0.0,74,0.00,,,0.00,meteohub,2013-01-11 16:17:00,
2013-01-11 11:22:00,36.7,29.5,30.45,NW,310,0.0,0.0,75,0.00,,,0.00,meteohub,2013-01-11 16:22:00,
2013-01-11 11:27:00,36.7,29.5,30.45,NW,310,0.0,0.0,75,0.00,,,0.00,meteohub,2013-01-11 16:27:00,
2013-01-11 11:32:00,36.7,29.1,30.45,NW,310,0.0,0.0,74,0.00,,,0.00,meteohub,2013-01-11 16:32:00,
2013-01-11 11:37:00,36.9,29.3,30.45,NW,310,0.0,0.0,74,0.00,,,0.00,meteohub,2013-01-11 16:37:00,
2013-01-11 11:42:00,36.9,29.7,30.44,NW,310,0.0,0.0,75,0.00,,,0.00,meteohub,2013-01-11 16:42:00,
2013-01-11 11:47:00,37.0,29.8,30.43,NW,310,0.0,0.0,75,0.00,,,0.00,meteohub,2013-01-11 16:47:00,
2013-01-11 11:52:00,37.2,29.7,30.43,NW,310,0.0,0.0,74,0.00,,,0.00,meteohub,2013-01-11 16:52:00,
2013-01-11 11:57:00,37.2,30.0,30.42,NW,310,0.0,0.0,75,0.00,,,0.00,meteohub,2013-01-11 16:57:00,
2013-01-11 12:02:00,37.6,30.4,30.41,NW,310,0.0,0.0,75,0.00,,,0.00,meteohub,2013-01-11 17:02:00,
2013-01-11 12:07:00,37.6,30.7,30.41,NW,310,0.0,0.0,76,0.00,,,0.00,meteohub,2013-01-11 17:07:00,
2013-01-11 12:12:00,37.6,30.4,30.42,NW,310,0.0,0.0,75,0.00,,,0.00,meteohub,2013-01-11 17:12:00,
2013-01-11 12:17:00,37.6,30.4,30.41,NW,310,0.0,0.0,75,0.00,,,0.00,meteohub,2013-01-11 17:17:00,
2013-01-11 12:22:00,37.6,30.7,30.41,NW,310,0.0,0.0,76,0.00,,,0.00,meteohub,2013-01-11 17:22:00,
2013-01-11 12:27:00,37.6,30.7,30.40,NW,310,0.0,0.0,76,0.00,,,0.00,meteohub,2013-01-11 17:27:00,
2013-01-11 12:32:00,37.8,31.3,30.40,NW,310,0.0,0.0,77,0.00,,,0.00,meteohub,2013-01-11 17:32:00,
2013-01-11 12:37:00,37.8,31.3,30.40,NW,310,0.0,0.0,77,0.00,,,0.00,meteohub,2013-01-11 17:37:00,
2013-01-11 12:42:00,37.8,31.5,30.39,NW,310,0.0,0.0,78,0.00,,,0.00,meteohub,2013-01-11 17:42:00,
2013-01-11 12:47:00,37.9,31.6,30.39,NW,310,0.0,0.0,78,0.00,,,0.00,meteohub,2013-01-11 17:47:00,
2013-01-11 12:52:00,37.9,32.0,30.39,NW,310,0.0,0.0,79,0.00,,,0.00,meteohub,2013-01-11 17:52:00,
2013-01-11 12:57:00,37.9,32.0,30.39,NW,310,0.0,0.0,79,0.00,,,0.00,meteohub,2013-01-11 17:57:00,
2013-01-11 13:02:00,38.1,32.2,30.38,NW,310,0.0,0.0,79,0.00,,,0.00,meteohub,2013-01-11 18:02:00,
2013-01-11 13:07:00,38.1,32.2,30.38,NW,310,0.0,0.0,79,0.00,,,0.00,meteohub,2013-01-11 18:07:00,
2013-01-11 13:12:00,38.1,32.2,30.38,NW,310,0.0,0.0,79,0.00,,,0.00,meteohub,2013-01-11 18:12:00,
2013-01-11 13:17:00,38.3,32.7,30.38,NW,310,0.0,0.0,80,0.00,,,0.00,meteohub,2013-01-11 18:17:00,
2013-01-11 13:22:00,38.5,32.9,30.37,NW,310,0.0,0.0,80,0.00,,,0.00,meteohub,2013-01-11 18:22:00,
2013-01-11 13:27:00,38.5,32.9,30.37,NW,310,0.0,0.0,80,0.00,,,0.00,meteohub,2013-01-11 18:27:00,
2013-01-11 13:32:00,38.7,33.1,30.37,NW,310,0.0,0.0,80,0.00,,,0.00,meteohub,2013-01-11 18:32:00,
2013-01-11 13:37:00,38.7,33.1,30.37,NW,310,0.0,0.0,80,0.00,,,0.00,meteohub,2013-01-11 18:37:00,
2013-01-11 13:42:00,38.8,33.3,30.37,NW,310,0.0,0.0,80,0.00,,,0.00,meteohub,2013-01-11 18:42:00,
2013-01-11 13:47:00,39.0,33.4,30.38,NW,310,0.0,0.0,80,0.00,,,0.00,meteohub,2013-01-11 18:47:00,
2013-01-11 13:52:00,39.0,33.4,30.37,NW,310,0.0,0.0,80,0.00,,,0.00,meteohub,2013-01-11 18:52:00,
2013-01-11 13:57:00,39.0,33.4,30.37,NW,310,0.0,0.0,80,0.00,,,0.00,meteohub,2013-01-11 18:57:00,
2013-01-11 14:02:00,39.2,33.6,30.37,NW,310,0.0,0.0,80,0.00,,,0.00,meteohub,2013-01-11 19:02:00,
2013-01-11 14:07:00,39.0,33.4,30.37,NW,310,0.0,0.0,80,0.00,,,0.00,meteohub,2013-01-11 19:07:00,
2013-01-11 14:12:00,39.0,33.6,30.36,NW,310,0.0,0.0,81,0.00,,,0.00,meteohub,2013-01-11 19:12:00,
2013-01-11 14:17:00,39.0,33.6,30.37,NW,310,0.0,0.0,81,0.00,,,0.00,meteohub,2013-01-11 19:17:00,
2013-01-11 14:22:00,39.0,33.6,30.36,NW,310,0.0,0.0,81,0.00,,,0.00,meteohub,2013-01-11 19:22:00,
2013-01-11 14:27:00,39.0,34.0,30.36,NW,310,0.0,0.0,82,0.00,,,0.00,meteohub,2013-01-11 19:27:00,
2013-01-11 14:32:00,39.0,34.0,30.36,NW,310,0.0,0.0,82,0.00,,,0.00,meteohub,2013-01-11 19:32:00,
2013-01-11 14:37:00,39.0,34.0,30.36,NW,310,0.0,0.0,82,0.00,,,0.00,meteohub,2013-01-11 19:37:00,
2013-01-11 14:42:00,39.0,34.3,30.35,NW,310,0.0,0.0,83,0.00,,,0.00,meteohub,2013-01-11 19:42:00,
2013-01-11 14:47:00,38.8,34.3,30.35,NW,310,0.0,0.0,84,0.00,,,0.00,meteohub,2013-01-11 19:47:00,
2013-01-11 14:52:00,38.8,35.1,30.35,NW,310,0.0,0.0,86,0.00,,,0.00,meteohub,2013-01-11 19:52:00,
2013-01-11 14:57:00,38.8,35.1,30.35,NW,310,0.0,0.0,86,0.00,,,0.00,meteohub,2013-01-11 19:57:00,
2013-01-11 15:02:00,38.8,35.1,30.35,NW,310,0.0,0.0,86,0.00,,,0.00,meteohub,2013-01-11 20:02:00,
2013-01-11 15:07:00,38.7,35.1,30.35,NW,310,0.0,0.0,87,0.00,,,0.00,meteohub,2013-01-11 20:07:00,
2013-01-11 15:12:00,38.7,35.1,30.35,NW,310,0.0,0.0,87,0.00,,,0.00,meteohub,2013-01-11 20:12:00,
2013-01-11 15:17:00,38.7,35.1,30.35,NW,310,0.0,0.0,87,0.00,,,0.00,meteohub,2013-01-11 20:17:00,
2013-01-11 15:22:00,38.5,35.2,30.34,NW,310,0.0,0.0,88,0.00,,,0.00,meteohub,2013-01-11 20:22:00,
2013-01-11 15:27:00,38.5,35.6,30.33,NW,310,0.0,0.0,89,0.00,,,0.00,meteohub,2013-01-11 20:27:00,
2013-01-11 15:32:00,38.3,35.6,30.33,NW,310,0.0,0.0,90,0.00,,,0.00,meteohub,2013-01-11 20:32:00,
2013-01-11 15:37:00,38.3,35.6,30.34,NW,310,0.0,0.0,90,0.00,,,0.00,meteohub,2013-01-11 20:37:00,
2013-01-11 15:42:00,38.1,35.8,30.34,NW,310,0.0,0.0,91,0.00,,,0.00,meteohub,2013-01-11 20:42:00,
2013-01-11 15:47:00,37.9,35.6,30.33,NW,310,0.0,0.0,91,0.00,,,0.00,meteohub,2013-01-11 20:47:00,
2013-01-11 15:52:00,37.9,35.6,30.34,NW,310,0.0,0.0,91,0.00,,,0.00,meteohub,2013-01-11 20:52:00,
2013-01-11 15:57:00,37.8,35.6,30.34,NW,310,0.0,0.0,92,0.00,,,0.00,meteohub,2013-01-11 20:57:00,
2013-01-11 16:02:00,37.8,35.6,30.33,NW,310,0.0,0.0,92,0.00,,,0.00,meteohub,2013-01-11 21:02:00,
2013-01-11 16:07:00,37.6,35.4,30.33,NW,310,0.0,0.0,92,0.00,,,0.00,meteohub,2013-01-11 21:07:00,
2013-01-11 16:12:00,37.6,35.8,30.32,NW,310,0.0,0.0,93,0.00,,,0.00,meteohub,2013-01-11 21:12:00,
2013-01-11 16:17:00,37.6,35.8,30.32,NW,310,0.0,0.0,93,0.00,,,0.00,meteohub,2013-01-11 21:17:00,
2013-01-11 16:22:00,37.6,35.8,30.32,NW,310,0.0,0.0,93,0.00,,,0.00,meteohub,2013-01-11 21:22:00,
2013-01-11 16:27:00,37.6,35.8,30.32,NW,310,0.0,0.0,93,0.00,,,0.00,meteohub,2013-01-11 21:27:00,
2013-01-11 16:32:00,37.6,36.0,30.31,NW,310,0.0,0.0,94,0.00,,,0.00,meteohub,2013-01-11 21:32:00,
2013-01-11 16:37:00,37.6,36.0,30.30,NW,310,0.0,0.0,94,0.00,,,0.00,meteohub,2013-01-11 21:37:00,
2013-01-11 16:42:00,37.6,36.0,30.30,NW,310,0.0,0.0,94,0.00,,,0.00,meteohub,2013-01-11 21:42:00,
2013-01-11 16:47:00,37.6,36.0,30.30,NW,310,0.0,0.0,94,0.00,,,0.00,meteohub,2013-01-11 21:47:00,
2013-01-11 16:52:00,37.6,36.3,30.30,NW,310,0.0,0.0,95,0.00,,,0.00,meteohub,2013-01-11 21:52:00,
2013-01-11 16:57:00,37.8,36.5,30.30,NW,310,0.0,0.0,95,0.00,,,0.00,meteohub,2013-01-11 21:57:00,
2013-01-11 17:02:00,37.8,36.5,30.30,NW,310,0.0,0.0,95,0.00,,,0.00,meteohub,2013-01-11 22:02:00,
2013-01-11 17:07:00,37.8,36.5,30.30,NW,310,0.0,0.0,95,0.00,,,0.00,meteohub,2013-01-11 22:07:00,
2013-01-11 17:12:00,37.8,36.5,30.30,NW,310,0.0,0.0,95,0.00,,,0.00,meteohub,2013-01-11 22:12:00,
2013-01-11 17:17:00,37.8,36.5,30.30,NW,310,0.0,0.0,95,0.00,,,0.00,meteohub,2013-01-11 22:17:00,
2013-01-11 17:22:00,37.8,36.5,30.29,NW,310,0.0,0.0,95,0.00,,,0.00,meteohub,2013-01-11 22:22:00,
2013-01-11 17:27:00,37.9,36.7,30.29,NW,310,0.0,0.0,95,0.00,,,0.00,meteohub,2013-01-11 22:27:00,
2013-01-11 17:32:00,37.9,36.9,30.28,NW,310,0.0,0.0,96,0.00,,,0.00,meteohub,2013-01-11 22:32:00,
2013-01-11 17:37:00,38.1,37.0,30.28,NW,310,0.0,0.0,96,0.00,,,0.00,meteohub,2013-01-11 22:37:00,
2013-01-11 17:42:00,38.1,37.0,30.28,NW,310,0.0,0.0,96,0.00,,,0.00,meteohub,2013-01-11 22:42:00,
2013-01-11 17:47:00,38.3,37.2,30.28,NW,310,0.0,0.0,96,0.00,,,0.00,meteohub,2013-01-11 22:47:00,
2013-01-11 17:52:00,38.3,37.2,30.28,NW,310,0.0,0.0,96,0.00,,,0.00,meteohub,2013-01-11 22:52:00,
2013-01-11 17:57:00,38.5,37.4,30.27,NW,310,0.0,0.0,96,0.00,,,0.00,meteohub,2013-01-11 22:57:00,
2013-01-11 18:02:00,38.5,37.4,30.27,NW,310,0.0,0.0,96,0.00,,,0.00,meteohub,2013-01-11 23:02:00,
2013-01-11 18:07:00,38.7,37.6,30.28,NW,310,0.0,0.0,96,0.00,,,0.00,meteohub,2013-01-11 23:07:00,
2013-01-11 18:12:00,38.7,37.6,30.27,NW,310,0.0,0.0,96,0.00,,,0.00,meteohub,2013-01-11 23:12:00,
2013-01-11 18:17:00,38.7,37.6,30.27,NW,310,0.0,0.0,96,0.00,,,0.00,meteohub,2013-01-11 23:17:00,
2013-01-11 18:22:00,38.7,37.6,30.27,NW,310,0.0,0.0,96,0.00,,,0.00,meteohub,2013-01-11 23:22:00,
2013-01-11 18:27:00,38.8,37.8,30.27,NW,310,0.0,0.0,96,0.00,,,0.00,meteohub,2013-01-11 23:27:00,
2013-01-11 18:32:00,38.8,37.8,30.27,NW,310,0.0,0.0,96,0.00,,,0.00,meteohub,2013-01-11 23:32:00,
2013-01-11 18:37:00,38.8,37.8,30.26,NW,310,0.0,0.0,96,0.00,,,0.00,meteohub,2013-01-11 23:37:00,
2013-01-11 18:42:00,38.8,37.8,30.26,NW,310,0.0,0.0,96,0.00,,,0.00,meteohub,2013-01-11 23:42:00,
2013-01-11 18:47:00,38.8,37.8,30.26,NW,310,0.0,0.0,96,0.00,,,0.00,meteohub,2013-01-11 23:47:00,
2013-01-11 18:52:00,38.8,37.8,30.25,NW,310,0.0,0.0,96,0.00,,,0.00,meteohub,2013-01-11 23:52:00,
2013-01-11 18:57:00,39.0,38.3,30.25,NW,310,0.0,0.0,97,0.00,,,0.00,meteohub,2013-01-11 23:57:00,
2013-01-11 19:02:00,39.2,38.5,30.25,NW,310,0.0,0.0,97,0.00,,,0.00,meteohub,2013-01-12 00:02:00,
2013-01-11 19:07:00,39.2,38.5,30.25,NW,310,0.0,0.0,97,0.00,,,0.00,meteohub,2013-01-12 00:07:00,
2013-01-11 19:12:00,39.4,38.7,30.25,NW,310,0.0,0.0,97,0.00,,,0.00,meteohub,2013-01-12 00:12:00,
2013-01-11 19:17:00,39.4,38.7,30.24,NW,310,0.0,0.0,97,0.00,,,0.00,meteohub,2013-01-12 00:17:00,
2013-01-11 19:22:00,39.6,38.8,30.24,NW,310,0.0,0.0,97,0.00,,,0.00,meteohub,2013-01-12 00:22:00,
2013-01-11 19:27:00,39.6,38.8,30.24,NW,310,0.0,0.0,97,0.00,,,0.00,meteohub,2013-01-12 00:27:00,
2013-01-11 19:32:00,39.7,39.0,30.24,NW,310,0.0,0.0,97,0.00,,,0.00,meteohub,2013-01-12 00:32:00,
2013-01-11 19:37:00,39.7,39.0,30.23,NW,310,0.0,0.0,97,0.00,,,0.00,meteohub,2013-01-12 00:37:00,
2013-01-11 19:42:00,39.9,39.2,30.23,NW,310,0.0,0.0,97,0.00,,,0.00,meteohub,2013-01-12 00:42:00,
2013-01-11 19:47:00,40.1,39.4,30.23,NW,310,0.0,0.0,97,0.00,,,0.00,meteohub,2013-01-12 00:47:00,
2013-01-11 19:52:00,40.3,39.6,30.22,NW,310,0.0,0.0,97,0.00,,,0.00,meteohub,2013-01-12 00:52:00,
2013-01-11 19:57:00,40.5,39.7,30.22,NW,310,0.0,0.0,97,0.00,,,0.00,meteohub,2013-01-12 00:57:00,
2013-01-11 20:02:00,40.5,39.7,30.22,NW,310,0.0,0.0,97,0.00,,,0.00,meteohub,2013-01-12 01:02:00,
2013-01-11 20:07:00,40.6,39.9,30.21,NW,310,0.0,0.0,97,0.00,,,0.00,meteohub,2013-01-12 01:07:00,
2013-01-11 20:12:00,40.6,39.9,30.21,NW,310,0.0,0.0,97,0.00,,,0.00,meteohub,2013-01-12 01:12:00,
2013-01-11 20:17:00,40.8,40.1,30.21,NW,310,0.0,0.0,97,0.00,,,0.00,meteohub,2013-01-12 01:17:00,
2013-01-11 20:22:00,40.8,40.3,30.21,NW,310,0.0,0.0,98,0.00,,,0.00,meteohub,2013-01-12 01:22:00,
2013-01-11 20:27:00,41.2,40.6,30.20,NW,310,0.0,0.0,98,0.00,,,0.00,meteohub,2013-01-12 01:27:00,
2013-01-11 20:32:00,41.4,40.8,30.21,NW,310,0.0,0.0,98,0.00,,,0.00,meteohub,2013-01-12 01:32:00,
2013-01-11 20:37:00,41.4,40.8,30.21,NW,310,0.0,0.0,98,0.00,,,0.00,meteohub,2013-01-12 01:37:00,
2013-01-11 20:42:00,41.4,40.8,30.22,NW,310,0.0,0.0,98,0.00,,,0.00,meteohub,2013-01-12 01:42:00,
2013-01-11 20:47:00,41.4,40.8,30.22,NW,310,0.0,0.0,98,0.00,,,0.00,meteohub,2013-01-12 01:47:00,
2013-01-11 20:52:00,41.4,40.8,30.22,NW,310,0.0,0.0,98,0.00,,,0.00,meteohub,2013-01-12 01:52:00,
2013-01-11 20:57:00,41.5,41.0,30.22,NW,310,0.0,0.0,98,0.00,,,0.00,meteohub,2013-01-12 01:57:00,
2013-01-11 21:02:00,41.7,41.2,30.22,NW,310,0.0,0.0,98,0.00,,,0.00,meteohub,2013-01-12 02:02:00,
2013-01-11 21:07:00,41.7,41.2,30.22,NW,310,0.0,0.0,98,0.00,,,0.00,meteohub,2013-01-12 02:07:00,
2013-01-11 21:12:00,41.7,41.2,30.22,NW,310,0.0,0.0,98,0.00,,,0.00,meteohub,2013-01-12 02:12:00,
2013-01-11 21:17:00,41.9,41.4,30.21,NW,310,0.0,0.0,98,0.00,,,0.00,meteohub,2013-01-12 02:17:00,
2013-01-11 21:22:00,41.9,41.4,30.21,NW,310,0.0,0.0,98,0.00,,,0.00,meteohub,2013-01-12 02:22:00,
2013-01-11 21:27:00,41.9,41.4,30.20,NW,310,0.0,0.0,98,0.00,,,0.00,meteohub,2013-01-12 02:27:00,
2013-01-11 21:32:00,42.1,41.5,30.20,NW,310,0.0,0.0,98,0.00,,,0.00,meteohub,2013-01-12 02:32:00,
2013-01-11 21:37:00,42.3,41.7,30.20,NW,310,0.0,0.0,98,0.00,,,0.00,meteohub,2013-01-12 02:37:00,
2013-01-11 21:42:00,42.3,41.7,30.20,NW,310,0.0,0.0,98,0.00,,,0.00,meteohub,2013-01-12 02:42:00,
2013-01-11 21:47:00,42.3,41.7,30.20,NW,310,0.0,0.0,98,0.00,,,0.00,meteohub,2013-01-12 02:47:00,
2013-01-11 21:52:00,42.4,41.9,30.19,NW,310,0.0,0.0,98,0.00,,,0.00,meteohub,2013-01-12 02:52:00,
2013-01-11 21:57:00,42.4,41.9,30.19,NW,310,0.0,0.0,98,0.00,,,0.00,meteohub,2013-01-12 02:57:00,
2013-01-11 22:02:00,42.6,42.1,30.19,NW,310,0.0,0.0,98,0.00,,,0.00,meteohub,2013-01-12 03:02:00,
2013-01-11 22:07:00,42.6,42.1,30.20,NW,310,0.0,0.0,98,0.00,,,0.00,meteohub,2013-01-12 03:07:00,
2013-01-11 22:12:00,42.6,42.1,30.19,NW,310,0.0,0.0,98,0.00,,,0.00,meteohub,2013-01-12 03:12:00,
2013-01-11 22:17:00,42.8,42.3,30.19,NW,310,0.0,0.0,98,0.00,,,0.00,meteohub,2013-01-12 03:17:00,
2013-01-11 22:22:00,43.0,42.4,30.19,NW,310,0.0,0.0,98,0.00,,,0.00,meteohub,2013-01-12 03:22:00,
2013-01-11 22:27:00,43.0,42.4,30.19,NW,310,0.0,0.0,98,0.00,,,0.00,meteohub,2013-01-12 03:27:00,
2013-01-11 22:32:00,43.0,42.4,30.19,NW,310,0.0,0.0,98,0.00,,,0.00,meteohub,2013-01-12 03:32:00,
2013-01-11 22:37:00,42.8,42.3,30.19,NW,310,0.0,0.0,98,0.00,,,0.00,meteohub,2013-01-12 03:37:00,
2013-01-11 22:42:00,43.0,42.4,30.18,NW,310,0.0,0.0,98,0.00,,,0.00,meteohub,2013-01-12 03:42:00,
2013-01-11 22:47:00,43.0,42.4,30.18,NW,310,0.0,0.0,98,0.00,,,0.00,meteohub,2013-01-12 03:47:00,
2013-01-11 22:52:00,43.0,42.4,30.18,NW,310,0.0,0.0,98,0.00,,,0.00,meteohub,2013-01-12 03:52:00,
2013-01-11 22:57:00,43.0,42.4,30.18,NW,310,0.0,0.0,98,0.00,,,0.00,meteohub,2013-01-12 03:57:00,
2013-01-11 23:02:00,43.2,42.6,30.18,NW,310,0.0,0.0,98,0.00,,,0.00,meteohub,2013-01-12 04:02:00,
2013-01-11 23:07:00,43.2,42.6,30.17,NW,310,0.0,0.0,98,0.00,,,0.00,meteohub,2013-01-12 04:07:00,
2013-01-11 23:12:00,43.0,42.4,30.17,NW,310,0.0,0.0,98,0.00,,,0.00,meteohub,2013-01-12 04:12:00,
2013-01-11 23:17:00,43.2,42.6,30.17,NW,310,0.0,0.0,98,0.00,,,0.00,meteohub,2013-01-12 04:17:00,
2013-01-11 23:22:00,43.2,42.6,30.16,NW,310,0.0,0.0,98,0.00,,,0.00,meteohub,2013-01-12 04:22:00,
2013-01-11 23:27:00,43.2,42.6,30.16,NW,310,0.0,0.0,98,0.00,,,0.00,meteohub,2013-01-12 04:27:00,
2013-01-11 23:32:00,43.3,42.8,30.16,NW,310,0.0,0.0,98,0.00,,,0.00,meteohub,2013-01-12 04:32:00,
2013-01-11 23:37:00,43.3,42.8,30.16,NW,310,0.0,0.0,98,0.00,,,0.00,meteohub,2013-01-12 04:37:00,
2013-01-11 23:42:00,43.3,42.8,30.15,NW,310,0.0,0.0,98,0.00,,,0.00,meteohub,2013-01-12 04:42:00,
2013-01-11 23:47:00,43.3,42.8,30.15,NW,310,0.0,0.0,98,0.00,,,0.00,meteohub,2013-01-12 04:47:00,
2013-01-11 23:52:00,43.3,42.8,30.15,NW,310,0.0,0.0,98,0.00,,,0.00,meteohub,2013-01-12 04:52:00,
2013-01-11 23:57:00,43.2,42.6,30.15,NW,310,0.0,0.0,98,0.00,,,0.00,meteohub,2013-01-12 04:57:00,